TimeEST,TemperatureF,Dew PointF,Humidity,Sea Level PressureIn,VisibilityMPH,Wind Direction,Wind SpeedMPH,Gust SpeedMPH,PrecipitationIn,Events,Conditions,WindDirDegrees,DateUTC
12:53 AM,37.0,25.0,62,30.27,10.0,SSW,11.5,-,N/A,,Clear,200,2013-01-09 05:53:00
1:53 AM,37.9,26.1,62,30.27,10.0,South,12.7,-,N/A,,Clear,190,2013-01-09 06:53:00
2:53 AM,36.0,26.1,67,30.26,10.0,SSW,9.2,18.4,N/A,,Clear,200,2013-01-09 07:53:00
3:53 AM,39.0,27.0,62,30.22,10.0,South,13.8,-,N/A,,Clear,180,2013-01-09 08:53:00
4:53 AM,39.0,26.1,60,30.19,10.0,South,13.8,-,N/A,,Clear,190,2013-01-09 09:53:00
5:53 AM,39.0,26.1,60,30.19,10.0,SSW,16.1,25.3,N/A,,Clear,200,2013-01-09 10:53:00
6:53 AM,39.9,25.0,55,30.15,10.0,SSW,15.0,-,N/A,,Clear,200,2013-01-09 11:53:00
7:53 AM,41.0,25.0,53,30.14,10.0,South,18.4,29.9,N/A,,Mostly Cloudy,190,2013-01-09 12:53:00
8:53 AM,42.1,26.1,53,30.12,10.0,South,19.6,31.1,N/A,,Partly Cloudy,190,2013-01-09 13:53:00
9:53 AM,42.1,28.9,60,30.11,9.0,South,18.4,23.0,0.00,Rain,Light Rain,190,2013-01-09 14:53:00
10:25 AM,42.8,33.8,70,30.09,10.0,SW,9.2,-,0.00,,Scattered Clouds,230,2013-01-09 15:25:00
10:53 AM,43.0,34.0,71,30.09,10.0,SSW,13.8,-,0.00,,Clear,210,2013-01-09 15:53:00
11:53 AM,44.1,34.0,68,30.07,10.0,SSW,17.3,27.6,N/A,,Scattered Clouds,210,2013-01-09 16:53:00
12:53 PM,46.0,34.0,63,30.05,10.0,SW,26.5,38.0,N/A,,Mostly Cloudy,230,2013-01-09 17:53:00
1:53 PM,45.0,33.1,63,30.06,10.0,WSW,29.9,42.6,N/A,,Clear,250,2013-01-09 18:53:00
2:53 PM,43.0,33.1,68,30.10,10.0,WSW,26.5,42.6,N/A,,Clear,240,2013-01-09 19:53:00
3:53 PM,42.1,33.1,70,30.13,10.0,WSW,20.7,31.1,N/A,,Clear,240,2013-01-09 20:53:00
4:53 PM,41.0,32.0,70,30.15,10.0,WSW,17.3,34.5,N/A,,Clear,240,2013-01-09 21:53:00
5:53 PM,41.0,30.0,65,30.17,10.0,SW,23.0,33.4,N/A,,Clear,230,2013-01-09 22:53:00
6:53 PM,41.0,28.9,62,30.21,10.0,WSW,25.3,39.1,N/A,,Clear,240,2013-01-09 23:53:00
7:53 PM,41.0,30.0,65,30.25,10.0,WSW,21.9,29.9,N/A,,Clear,240,2013-01-10 00:53:00
8:53 PM,41.0,32.0,70,30.33,10.0,WSW,19.6,31.1,N/A,,Clear,250,2013-01-10 01:53:00
9:53 PM,39.9,32.0,73,30.37,10.0,WSW,13.8,25.3,N/A,,Overcast,250,2013-01-10 02:53:00
10:53 PM,39.0,28.9,67,30.40,10.0,WSW,11.5,20.7,N/A,,Partly Cloudy,250,2013-01-10 03:53:00
11:53 PM,37.9,28.9,70,30.44,10.0,West,8.1,-,N/A,,Clear,270,2013-01-10 04:53:00